Delta Virtual Airport Information Service

Buenos Aires Ministro Pistarini International Airport

ICAO: SAEZ Country: Argentina
Latitude: -34.8222 Longitude: -58.5358
Latest Arrival : DAL101 (1) (KATL-SAEZ) Latest Departure : DAC8099 (SAEZ-LIRF)


WX CaptureLIVE
Data provided by noaa.gov | Fetched at 03:39:26

METAR : SAEZ 030900Z 07007KT CAVOK 18/14 Q1015 NOSIG RMK PP000

TAF : SAEZ 030500Z 0306/0406 05010KT CAVOK TX27/0318Z TN17/0310Z BECMG 0317/0319 09015KT 9999 SCT035 BECMG 0400/0403 14005KT SCT030 BKN080


Runway Data for SAEZ
Data provided by openaviationdata.com

Runway ID Mag Var Hdg Length Elevation Surface ILS Freq ILS Id ILS Slope
11 -6 108° 10801 ft 66 ft Asphalt 110.1 PC 3
17 -6 170° 10210 ft 66 ft Asphalt -- -- --
29 -6 288° 10801 ft 66 ft Asphalt -- -- --
35 -6 350° 10210 ft 66 ft Asphalt 108.7 EZ 3

Buenos Aires Ministro Pistarini International Airport, Argentina
Use only for reference purposes



Not for navigational purposes.